San Antonio Stinson, TX

9:04 AM CDT on October 18, 2019 (GMT -0500)
Stinson Municipal

Weather History for KSSF - September, 2019

Change the Weather History Date:

Friday, September 20, 2019

  Actual Average Record
Temperature  
Mean Temperature 91 °F -  
Max Temperature 102 °F 87 °F 100 °F (2017)
Min Temperature 80 °F 66 °F 57 °F (2002)
Cooling Degree Days 26    
Growing Degree Days 41 (Base 50)    
Moisture  
Dew Point 71 °F    
Average Humidity 60    
Maximum Humidity 82    
Minimum Humidity 30    
Precipitation  
Precipitation 0.00 in - - ()
Sea Level Pressure  
Sea Level Pressure 29.88 in    
Wind  
Wind Speed 11 mph ()    
Max Wind Speed 24 mph    
Max Gust Speed 29 mph    
Visibility 10.0 miles    
Events      
Averages and records for this station are not official NWS values.
T = Trace of Precipitation, MM = Missing Value Source: Averaged Metar Reports

Daily Weather History Graph

Daily Weather History Graph

Search for Another Location

Airport or City:

Astronomy

Sep. 20, 2019 Rise Set
Actual Time 7:21 AM CDT 7:33 PM CDT
Civil Twilight 6:57 AM CDT 7:56 PM CDT
Nautical Twilight 6:29 AM CDT 8:24 PM CDT
Astronomical Twilight 6:01 AM CDT 8:52 PM CDT
Moon 11:50 PM CDT (9/20) 1:01 PM CDT (9/20)
Length of Visible Light 12h 59m
Length of Day
12h 11m
Waning Gibbous, 65% of the Moon is Illuminated
Sep 20
Waning Gibbous
Sep 21
Last Quarter
Sep 28
New
Oct 5
First Quarter
Oct 13
Full

Hourly Weather History & Observations

Time (CDT) Temp. Heat Index Dew Point Humidity Pressure Visibility Wind Dir Wind Speed Gust Speed Precip Events Conditions
12:53 AM 82.9 °F 90.2 °F 75.0 °F 77% 29.83 in 10.0 mi SE 9.2 mph - N/A   Overcast
1:03 AM 82.9 °F 90.2 °F 75.0 °F 77% 29.88 in 10.0 mi SE 10.4 mph - N/A   Overcast
1:53 AM 82.9 °F 90.8 °F 75.9 °F 79% 29.85 in 10.0 mi SSE 10.4 mph - N/A   Partly Cloudy
2:53 AM 82.0 °F 88.6 °F 75.0 °F 79% 29.83 in 10.0 mi SSE 11.5 mph - N/A   Clear
3:53 AM 82.0 °F 89.4 °F 75.9 °F 82% 29.83 in 10.0 mi SSE 10.4 mph - N/A   Clear
4:53 AM 82.0 °F 88.6 °F 75.0 °F 79% 29.83 in 10.0 mi South 11.5 mph - N/A   Clear
5:53 AM 81.0 °F 85.8 °F 73.0 °F 77% 29.86 in 10.0 mi SSE 8.1 mph - N/A   Clear
6:53 AM 80.1 °F 84.2 °F 73.0 °F 79% 29.88 in 10.0 mi South 8.1 mph - N/A   Clear
7:53 AM 80.1 °F 84.5 °F 73.9 °F 81% 29.88 in 10.0 mi SSE 5.8 mph - N/A   Clear
8:53 AM 82.9 °F 89.4 °F 73.9 °F 74% 29.91 in 10.0 mi SSE 9.2 mph - N/A   Partly Cloudy
9:24 AM 84.9 °F 91.4 °F 73.0 °F 67% 29.95 in 10.0 mi South 15.0 mph 24.2 mph N/A   Mostly Cloudy
9:43 AM 86.0 °F 92.2 °F 72.0 °F 63% 29.95 in 10.0 mi SSE 13.8 mph - N/A   Mostly Cloudy
9:50 AM 87.8 °F 93.8 °F 71.6 °F 58% 29.95 in 10.0 mi SSE 19.6 mph 24.2 mph N/A   Mostly Cloudy
9:53 AM 87.1 °F 92.8 °F 71.1 °F 59% 29.92 in 10.0 mi SSE 15.0 mph 24.2 mph N/A   Mostly Cloudy
10:00 AM 88.0 °F 93.8 °F 71.1 °F 57% 29.95 in 10.0 mi South 18.4 mph 24.2 mph N/A   Mostly Cloudy
10:53 AM 91.9 °F 94.5 °F 66.0 °F 42% 29.93 in 10.0 mi South 19.6 mph 24.2 mph N/A   Partly Cloudy
11:53 AM 93.9 °F 97.0 °F 66.0 °F 40% 29.91 in 10.0 mi SSE 16.1 mph 25.3 mph N/A   Clear
12:53 PM 97.0 °F 100.4 °F 66.0 °F 36% 29.88 in 10.0 mi SE 12.7 mph 24.2 mph N/A   Clear
1:53 PM 99.0 °F 102.3 °F 64.9 °F 33% 29.86 in 10.0 mi SSE 15.0 mph 23.0 mph N/A   Partly Cloudy
2:53 PM 99.0 °F 100.5 °F 63.0 °F 30% 29.83 in 10.0 mi South 12.7 mph 26.5 mph N/A   Scattered Clouds
3:53 PM 102.0 °F 105.9 °F 64.9 °F 30% 29.81 in 10.0 mi SSE 20.7 mph 28.8 mph N/A   Mostly Cloudy
4:53 PM 96.1 °F 102.9 °F 70.0 °F 43% 29.81 in 10.0 mi ESE 24.2 mph 28.8 mph N/A   Scattered Clouds
5:53 PM 95.0 °F 101.3 °F 70.0 °F 44% 29.81 in 10.0 mi SE 16.1 mph 24.2 mph N/A   Mostly Cloudy
6:53 PM 93.0 °F 97.9 °F 69.1 °F 45% 29.83 in 10.0 mi SE 16.1 mph 23.0 mph N/A   Partly Cloudy
7:53 PM 89.1 °F 94.1 °F 70.0 °F 53% 29.86 in 10.0 mi SE 18.4 mph 27.6 mph N/A   Clear
8:53 PM 87.1 °F 92.0 °F 70.0 °F 57% 29.89 in 10.0 mi SE 13.8 mph 23.0 mph N/A   Clear
9:53 PM 84.9 °F 90.7 °F 72.0 °F 65% 29.93 in 10.0 mi SE 13.8 mph 20.7 mph N/A   Clear
10:53 PM 82.9 °F 88.8 °F 73.0 °F 72% 29.95 in 10.0 mi ESE 12.7 mph - N/A   Clear
11:53 PM 82.9 °F 89.4 °F 73.9 °F 74% 29.96 in 10.0 mi SE 11.5 mph - N/A   Mostly Cloudy